Showing default

AURORA 1, 2876

Orbit data source: Space-Track

AURORA 1, 2876 is an American payload satellite in LEO that was launched on Thu, 29 Jun 1967 UTC via a THOR BURNER 2 launch vehicle from the Air Force Western Test Range (AFWTR). Payload-class satellites include a variety of spacecraft equipped with specific instruments for various scientific and technological missions. These include communications satellites like Starlink; space stations such as the ISS; scientific satellites like the Hubble; Earth observation satellites from companies like Planet Labs, Umbra, and HawkEye 360; GPS; miniature CubeSats for education and research; and military/defense satellites.

Loading next visibility...
Identifier
2876, 1967-065B
Orbit
LEO
Country
Flag of USUS
Related business
Manufacturer
Rice
Mission
Civil Science
Bus & Motor
RICE AURORA, Unknown motor
Mass
21 kg wet, 21 kg dry
Launch date (UTC)
1967-06-29 (58 years ago)
Launch vehicle
THOR BURNER 2
Launch site
Air Force Western Test Range (AFWTR)
Object type
Payload
Rocket body
Debris
Shape & HBR
Box, 0.3 m
Radar Cross Section
0.360 m², Medium (>0.1 m² and < 1m²)

Expand to show TLE details & history
Last TLE update: 1 day ago

TLE from 1 day ago
0 AURORA 1
1 02876U 67065B   25257.17099609 -.00000021  00000-0 -14265-1 0  9993
2 02876  89.9992 313.4589 0071020   7.6501 352.5404  8.36560598366528
Epoch: 2025-09-14T04:06Z
TLE epoch observation values (Epoch: 2025-09-14T04:06:14.062Z)
Latitude
-0.00002°
Longitude
-101.49353°
Altitude
3,802.138 km
Speed
6.28 km/s
True Right ascension
20h 53m 50s
True Declination
0° 00' 00"
Sunlit
Object was in partial shadow at epoch
Visualization orbit readout
Latitude
Unknown
Longitude
Unknown
Altitude
Unknown
Speed
Unknown
Apparent Right ascension
Unknown
Apparent Declination
Unknown
Sunlit
N/A
Visualization observer readout
Local Sidereal Time
22:52:41
Azimuth
Unknown
Elevation
Unknown
Doppler factor
Unknown
Orbital elements
Apogee altitude
3,942.811 km
Perigee altitude
3,797.246 km
Semi-major axis
10,248.166 km
Eccentricity
0.0071
Inclination
89.9992°
RAAN
313.4589°
Arg. of periapsis
7.6501°
True anomaly
352.43381°
Mean anomaly
352.5404°
Eccentric anomaly
352.4872°
Mean motion
2.09206 °/min
Orbital period
172.08 mins
BSTAR
-0.014265
Loading maneuver chart data...
Computing Atmospheric mass density...
Loading historical data...
Loading historical data...
Loading historical data...
Loading historical data...
Loading historical data...
Loading historical data...
Loading historical data...
Other satellites on launch #65 in the year 1967 (1967-06-29 UTC)

Documentation

Showing up to 5 results
|